Weather History for Midlothian, TX

Change the Weather History Date:

Monday, March 18, 2013

  Actual Average (KRBD) Record (KRBD)
Temperature  
Mean Temperature 62 °F -  
Max Temperature 70 °F 64 °F 84 °F (2011)
Min Temperature 53 °F 46 °F 45 °F (2001)
Degree Days  
Heating Degree Days 4    
Growing Degree Days 12 (Base 50)    
Moisture  
Dew Point 49 °F    
Average Humidity 62    
Maximum Humidity 93    
Minimum Humidity 39    
Precipitation  
Precipitation 0.00 in - - ()
Sea Level Pressure  
Sea Level Pressure 29.84 in    
Wind  
Wind Speed 9 mph (North)    
Max Wind Speed 20 mph    
Max Gust Speed 25 mph    
Visibility 9 miles    
Events      
Averages and records for this station are not official NWS values.
T = Trace of Precipitation, MM = Missing Value Source: NWS Daily Summary

Daily Weather History Graph

Daily Weather History Graph

Search for Another Location

Airport:

Trip Planner

Search our weather history database for the weather conditions in past years. The results will help you decide how hot, cold, wet, or windy it might be!

Date:

Astronomy

Mar. 18, 2013 Rise Set
Actual Time 7:33 AM CDT 7:37 PM CDT
Civil Twilight 7:09 AM CDT 8:02 PM CDT
Nautical Twilight 6:40 AM CDT 8:31 PM CDT
Astronomical Twilight 6:11 AM CDT 8:59 PM CDT
Moon 11:53 AM CDT (3/18) 1:19 AM CDT (3/18)
Length of Visible Light 12h 53m
Length of Day
12h 04m
Waxing Crescent, 41% of the Moon is Illuminated
Mar 18
Waxing Crescent
Mar 19
First Quarter
Mar 27
Full
Apr 2
Last Quarter
Apr 10
New

Hourly Weather History & Observations

Time (CDT) Temp. Dew Point Humidity Pressure Visibility Wind Dir Wind Speed Gust Speed Precip Events Conditions
12:15 AM 56.1 °F 48.9 °F 77% 29.72 in 10.0 mi NE 4.6 mph - N/A   Clear
12:35 AM 56.8 °F 48.6 °F 74% 29.71 in 10.0 mi NE 5.8 mph - N/A   Clear
12:55 AM 57.2 °F 48.4 °F 72% 29.73 in 10.0 mi North 5.8 mph - N/A   Clear
1:15 AM 56.1 °F 48.0 °F 74% 29.73 in 10.0 mi Calm Calm - N/A   Clear
1:35 AM 55.2 °F 48.0 °F 77% 29.74 in 10.0 mi Calm Calm - N/A   Clear
1:55 AM 53.8 °F 47.8 °F 80% 29.75 in 10.0 mi SE 3.5 mph - N/A   Clear
2:15 AM 53.1 °F 47.8 °F 82% 29.76 in 10.0 mi Calm Calm - N/A   Clear
2:35 AM 56.1 °F 49.1 °F 77% 29.70 in 10.0 mi ESE 6.9 mph - N/A   Scattered Clouds
2:55 AM 56.5 °F 48.6 °F 75% 29.71 in 10.0 mi East 5.8 mph - N/A   Clear
3:15 AM 55.9 °F 48.6 °F 76% 29.71 in 10.0 mi SSE 3.5 mph - N/A   Clear
3:35 AM 56.1 °F 48.9 °F 77% 29.71 in 10.0 mi SSE 5.8 mph - N/A   Clear
3:55 AM 56.3 °F 49.1 °F 77% 29.70 in 10.0 mi South 6.9 mph - N/A   Clear
4:15 AM 56.3 °F 49.5 °F 78% 29.69 in 10.0 mi SSE 5.8 mph - N/A   Clear
4:35 AM 55.4 °F 49.1 °F 79% 29.70 in 10.0 mi SE 4.6 mph - N/A   Clear
4:55 AM 55.8 °F 50.2 °F 82% 29.69 in 10.0 mi SSE 4.6 mph - N/A   Clear
5:15 AM 58.5 °F 56.3 °F 93% 29.69 in 7.0 mi South 11.5 mph - N/A   Clear
5:35 AM 60.8 °F 58.1 °F 91% 29.69 in 7.0 mi South 12.7 mph - N/A   Clear
5:55 AM 62.1 °F 59.9 °F 93% 29.69 in 5.0 mi South 15.0 mph 19.6 mph N/A   Mostly Cloudy
6:15 AM 63.1 °F 61.2 °F 93% 29.69 in 5.0 mi South 15.0 mph - N/A   Overcast
6:35 AM 64.4 °F 62.1 °F 92% 29.69 in 5.0 mi South 19.6 mph 25.3 mph N/A   Overcast
6:55 AM 64.4 °F 61.7 °F 91% 29.70 in 5.0 mi South 16.1 mph - N/A   Overcast
7:15 AM 65.3 °F 62.1 °F 89% 29.70 in 7.0 mi South 18.4 mph 24.2 mph N/A   Overcast
7:35 AM 65.5 °F 62.1 °F 89% 29.71 in 7.0 mi SSW 17.3 mph - N/A   Overcast
7:55 AM 66.0 °F 62.1 °F 87% 29.72 in 5.0 mi SSW 13.8 mph 24.2 mph N/A   Overcast
8:15 AM 66.2 °F 61.9 °F 86% 29.74 in 5.0 mi SSW 16.1 mph 20.7 mph N/A   Mostly Cloudy
8:35 AM 66.7 °F 62.1 °F 85% 29.77 in 5.0 mi SW 11.5 mph - N/A   Haze
8:55 AM 67.1 °F 62.2 °F 84% 29.78 in 5.0 mi WSW 11.5 mph 16.1 mph N/A   Haze
9:15 AM 68.2 °F 61.9 °F 80% 29.80 in 7.0 mi West 10.4 mph 17.3 mph N/A   Clear
9:35 AM 70.3 °F 59.2 °F 68% 29.79 in 10.0 mi West 6.9 mph - N/A   Clear
9:55 AM 68.4 °F 59.2 °F 72% 29.81 in 10.0 mi NNW 17.3 mph - N/A   Mostly Cloudy
10:15 AM 66.2 °F 57.2 °F 73% 29.83 in 7.0 mi North 16.1 mph - N/A   Mostly Cloudy
10:35 AM 65.5 °F 54.3 °F 67% 29.85 in 7.0 mi North 13.8 mph - N/A   Scattered Clouds
10:55 AM 65.5 °F 51.8 °F 61% 29.85 in 10.0 mi North 12.7 mph - N/A   Clear
11:15 AM 66.2 °F 50.7 °F 57% 29.87 in 10.0 mi NNW 15.0 mph - N/A   Clear
11:35 AM 65.3 °F 49.5 °F 57% 29.87 in 10.0 mi NNW 17.3 mph - N/A   Clear
11:55 AM 65.3 °F 48.9 °F 55% 29.88 in 10.0 mi NNW 13.8 mph - N/A   Clear
12:15 PM 66.6 °F 48.4 °F 52% 29.88 in 10.0 mi NNW 16.1 mph 19.6 mph N/A   Clear
12:35 PM 66.2 °F 47.5 °F 51% 29.88 in 10.0 mi North 17.3 mph - N/A   Clear
12:55 PM 66.9 °F 47.1 °F 49% 29.88 in 10.0 mi North 13.8 mph - N/A   Clear
1:15 PM 67.8 °F 46.6 °F 46% 29.88 in 10.0 mi North 16.1 mph 20.7 mph N/A   Clear
1:35 PM 67.6 °F 46.8 °F 47% 29.89 in 10.0 mi North 12.7 mph 17.3 mph N/A   Clear
1:55 PM 67.3 °F 45.7 °F 46% 29.89 in 10.0 mi NW 12.7 mph 21.9 mph N/A   Clear
2:15 PM 68.2 °F 46.6 °F 46% 29.88 in 10.0 mi NNW 12.7 mph 18.4 mph N/A   Clear
2:35 PM 69.1 °F 45.1 °F 42% 29.87 in 10.0 mi NNW 11.5 mph 18.4 mph N/A   Clear
2:55 PM 68.9 °F 44.6 °F 42% 29.87 in 10.0 mi North 11.5 mph - N/A   Clear
3:15 PM 69.4 °F 43.9 °F 40% 29.87 in 10.0 mi NNW 10.4 mph 19.6 mph N/A   Clear
3:35 PM 69.8 °F 43.5 °F 39% 29.87 in 10.0 mi North 13.8 mph 20.7 mph N/A   Clear
3:55 PM 70.0 °F 43.9 °F 39% 29.88 in 10.0 mi North 13.8 mph 19.6 mph N/A   Clear
4:15 PM 69.8 °F 43.7 °F 39% 29.88 in 10.0 mi NNW 15.0 mph - N/A   Clear
4:35 PM 68.5 °F 42.8 °F 39% 29.89 in 10.0 mi NW 13.8 mph - N/A   Clear
4:55 PM 68.5 °F 42.6 °F 39% 29.90 in 10.0 mi NNW 12.7 mph 19.6 mph N/A   Clear
5:15 PM 67.5 °F 42.4 °F 40% 29.90 in 10.0 mi NNW 12.7 mph - N/A   Clear
5:35 PM 67.3 °F 41.5 °F 39% 29.91 in 10.0 mi NNW 15.0 mph - N/A   Clear
5:55 PM 67.5 °F 41.5 °F 39% 29.91 in 10.0 mi NNW 12.7 mph - N/A   Clear
6:15 PM 66.6 °F 41.4 °F 40% 29.92 in 10.0 mi NNW 12.7 mph - N/A   Clear
6:35 PM 66.2 °F 41.9 °F 41% 29.92 in 10.0 mi NNW 11.5 mph - N/A   Clear
6:55 PM 65.3 °F 41.5 °F 42% 29.93 in 10.0 mi NNW 8.1 mph - N/A   Clear
7:15 PM 64.4 °F 42.1 °F 44% 29.93 in 10.0 mi North 5.8 mph - N/A   Clear
7:35 PM 63.5 °F 41.9 °F 45% 29.95 in 10.0 mi NW 6.9 mph - N/A   Clear
7:55 PM 62.8 °F 41.5 °F 46% 29.95 in 10.0 mi NW 5.8 mph - N/A   Clear
8:15 PM 61.7 °F 41.9 °F 48% 29.97 in 10.0 mi NW 5.8 mph - N/A   Clear
8:35 PM 60.8 °F 42.1 °F 50% 29.98 in 10.0 mi NNW 5.8 mph - N/A   Clear
8:55 PM 59.7 °F 42.3 °F 52% 29.98 in 10.0 mi North 8.1 mph - N/A   Clear
9:15 PM 60.1 °F 41.4 °F 50% 29.99 in 10.0 mi North 5.8 mph - N/A   Clear
9:35 PM 59.0 °F 41.2 °F 52% 30.00 in 10.0 mi NNE 4.6 mph - N/A   Clear
9:55 PM 58.3 °F 41.4 °F 53% 30.00 in 10.0 mi NE 8.1 mph - N/A   Clear
10:15 PM 59.0 °F 40.5 °F 50% 30.01 in 10.0 mi NNE 6.9 mph - N/A   Clear
10:55 PM 57.2 °F 39.6 °F 52% 30.01 in 10.0 mi NE 8.1 mph - N/A   Clear
11:15 PM 56.7 °F 39.2 °F 52% 30.01 in 10.0 mi NE 9.2 mph - N/A   Clear
11:35 PM 56.3 °F 37.9 °F 50% 30.01 in 10.0 mi NE 9.2 mph - N/A   Clear
11:55 PM 55.2 °F 37.2 °F 51% 30.02 in 10.0 mi NE 11.5 mph - N/A   Clear